Probability
16 16 13 13 13 16 13 13 10 6 3 10 6 10 10 13 16 32 55 71 77 77 71 68 58 65 68 61 68 61 61 65 61 61 61 52 39 35 26 26 19 26 19
10 3 3 3 3 6 3 6 3 0 0 6 10 10 6 10 16 23 39 61 65 77 74 68 68 68 65 58 61 65 55 52 65 65 55 52 52 32 26 26 26 26 29
6 6 3 3 3 0 3 0 0 0 0 3 3 6 6 6 13 19 23 48 58 68 71 74 77 74 65 61 55 61 58 58 61 68 58 58 55 52 35 35 26 19 23
6 3 3 3 3 0 0 0 0 0 0 3 3 3 0 6 6 6 16 29 32 48 58 68 84 84 81 65 52 55 65 61 71 65 68 58 48 55 42 35 32 29 23
6 6 6 3 0 0 0 0 0 0 0 0 0 0 0 0 6 6 10 10 23 32 42 48 77 81 71 68 58 61 61 65 58 55 39 42 39 58 48 35 35 35 29
13 6 6 3 3 3 0 0 0 0 0 0 0 0 0 0 0 3 3 3 3 6 16 19 52 52 71 84 84 65 61 68 55 61 48 48 39 61 58 42 29 26 29
10 10 10 6 3 3 0 0 0 0 0 0 0 0 0 0 0 0 3 3 3 3 3 6 19 23 29 45 68 77 74 74 68 65 61 68 58 58 55 55 35 26 23
13 10 6 6 3 3 0 0 0 0 0 0 0 0 0 0 0 0 0 0 3 6 6 6 6 13 16 16 16 42 77 77 71 71 74 77 68 65 61 52 42 19 6
13 13 13 6 3 3 0 0 0 0 0 0 0 0 0 0 0 0 0 0 0 3 3 6 6 6 6 10 10 10 39 58 61 58 68 71 68 61 55 55 42 29 16
13 13 10 6 3 3 0 0 0 0 0 0 0 0 0 0 0 0 0 0 0 0 0 3 3 6 6 6 3 0 3 23 42 55 65 71 61 58 52 45 32 29 19
3 10 6 10 6 6 0 0 0 0 0 0 0 0 0 0 0 0 0 0 0 0 0 0 0 3 3 3 6 0 0 0 3 29 48 55 55 58 58 45 32 23 19
3 3 10 10 6 6 3 3 0 0 0 0 0 0 0 0 0 0 0 0 0 0 0 0 0 0 0 0 0 0 0 0 0 0 0 23 42 45 52 42 29 23 19
6 6 6 3 10 6 6 3 3 0 0 0 0 0 0 0 0 0 0 0 0 0 0 0 0 0 0 0 0 0 0 0 0 0 0 0 0 6 23 29 23 23 19
3 3 3 3 10 0 0 6 0 0 0 0 0 0 0 0 0 0 0 0 0 0 0 0 0 0 0 0 0 0 0 0 0 0 0 0 0 0 0 0 0 3 6
0 0 3 3 3 3 3 3 0 0 0 0 0 0 0 0 0 0 0 0 0 0 0 0 0 0 0 0 0 0 0 0 0 0 0 0 0 0 0 0 0 0 0
3 3 3 3 3 3 3 0 3 6 0 0 0 3 3 3 3 0 0 0 0 0 0 0 0 0 0 0 0 0 0 0 0 0 0 0 0 0 0 0 0 0 0
3 3 3 3 3 3 0 0 0 0 3 3 6 6 6 6 3 3 0 0 0 0 0 0 0 0 0 0 0 0 0 0 0 0 0 0 0 0 0 0 0 0 0
3 0 0 0 0 0 3 3 0 0 0 6 3 3 3 3 0 0 0 0 0 0 0 0 0 0 0 0 0 0 0 0 0 0 0 0 0 0 0 0 0 0 0
3 3 0 3 3 3 3 3 3 3 3 3 3 3 3 0 0 0 0 0 0 0 0 0 0 0 0 0 0 0 0 0 0 0 0 0 0 0 0 0 0 0 0
6 6 3 3 6 6 3 3 3 3 3 3 0 0 0 0 0 0 0 0 0 0 0 0 0 0 0 0 0 0 0 0 0 0 0 0 0 0 0 0 0 0 0
6 6 3 3 6 3 3 3 3 0 0 0 0 0 0 0 0 0 0 0 0 0 0 0 0 0 0 0 0 0 0 0 0 0 0 0 0 0 0 0 0 0 0
3 3 3 3 0 3 3 0 0 0 0 0 0 0 0 0 0 0 0 0 0 0 0 0 0 0 0 0 0 0 0 0 0 0 0 0 0 0 0 0 0 0 0
3 3 3 3 0 0 0 0 0 0 0 0 0 0 0 0 0 0 0 0 0 0 0 0 0 0 0 0 0 0 0 0 0 0 0 0 0 0 0 0 0 0 0
3 3 0 0 0 0 0 0 0 0 0 0 0 0 0 0 0 0 0 0 0 0 0 0 0 0 0 0 0 0 0 0 0 0 0 0 0 0 0 0 0 0 0
0 0 0 0 0 0 0 0 0 0 0 0 0 0 0 0 0 0 0 0 0 0 0 0 0 0 0 0 0 0 0 0 0 0 0 0 0 0 0 0 0 0 0
0 0 0 0 0 0 0 0 0 0 0 0 0 0 0 0 0 0 0 0 0 0 0 0 0 0 0 0 0 0 0 0 0 0 0 0 0 0 0 0 0 0 0
Height
5896 5897 5898 5899 5899 5900 5900 5901 5901 5902 5902 5902 5903 5903 5903 5903 5902 5902 5902 5902 5902 5902 5902 5903 5903 5903 5903 5903 5904 5904 5904 5905 5905 5906 5906 5906 5906 5907 5907 5908 5908 5908 5909
5896 5897 5898 5898 5899 5900 5900 5901 5901 5902 5902 5903 5903 5903 5903 5903 5903 5903 5903 5903 5903 5903 5903 5903 5903 5903 5903 5903 5903 5904 5904 5904 5905 5905 5906 5906 5906 5906 5907 5907 5907 5908 5908
5895 5896 5897 5898 5899 5899 5900 5901 5901 5902 5902 5902 5903 5903 5903 5903 5903 5903 5903 5903 5903 5903 5903 5903 5903 5903 5903 5903 5903 5903 5903 5904 5904 5905 5905 5905 5905 5906 5906 5906 5907 5907 5907
5894 5895 5896 5897 5898 5899 5900 5900 5901 5901 5902 5902 5903 5903 5903 5903 5903 5903 5903 5903 5903 5903 5903 5903 5903 5903 5903 5903 5903 5903 5903 5903 5903 5904 5904 5904 5904 5905 5905 5905 5906 5906 5906
5892 5894 5895 5896 5897 5898 5899 5900 5900 5901 5901 5902 5902 5902 5902 5903 5903 5903 5903 5903 5903 5903 5903 5903 5903 5903 5903 5902 5902 5902 5903 5903 5903 5903 5903 5903 5903 5904 5904 5904 5905 5905 5905
5891 5892 5894 5895 5896 5897 5898 5899 5899 5900 5901 5901 5901 5902 5902 5902 5902 5902 5903 5903 5903 5903 5902 5902 5902 5902 5902 5902 5902 5902 5902 5902 5902 5902 5902 5902 5902 5903 5903 5903 5903 5903 5903
5890 5891 5893 5894 5895 5896 5897 5898 5898 5899 5899 5900 5900 5901 5901 5901 5902 5902 5902 5902 5902 5902 5902 5902 5901 5901 5901 5901 5901 5901 5901 5901 5901 5901 5901 5901 5901 5901 5901 5901 5902 5902 5902
5888 5890 5891 5892 5894 5895 5896 5896 5897 5898 5898 5899 5899 5900 5900 5901 5900 5901 5901 5901 5901 5901 5901 5901 5901 5900 5900 5900 5900 5900 5900 5900 5899 5899 5899 5899 5899 5899 5899 5899 5899 5899 5899
5887 5888 5889 5891 5892 5893 5894 5894 5895 5896 5896 5897 5898 5898 5899 5899 5899 5900 5900 5900 5899 5899 5899 5899 5899 5899 5899 5899 5899 5898 5898 5898 5898 5897 5897 5897 5897 5897 5897 5897 5897 5897 5897
5885 5886 5888 5888 5889 5890 5891 5892 5893 5893 5894 5894 5895 5896 5897 5897 5897 5898 5898 5898 5898 5898 5897 5897 5897 5897 5897 5897 5897 5897 5896 5896 5896 5895 5895 5895 5895 5895 5894 5894 5894 5894 5894
5883 5884 5885 5886 5887 5888 5889 5889 5890 5891 5891 5892 5893 5893 5894 5894 5895 5895 5896 5896 5896 5896 5895 5895 5895 5895 5894 5894 5894 5894 5894 5893 5893 5893 5892 5892 5892 5892 5891 5891 5891 5890 5890
5881 5881 5882 5883 5884 5885 5886 5886 5887 5888 5888 5889 5890 5890 5891 5891 5892 5892 5892 5893 5893 5893 5892 5892 5892 5892 5891 5891 5891 5891 5890 5890 5890 5890 5889 5889 5888 5888 5888 5887 5887 5887 5886
5878 5879 5879 5880 5880 5881 5882 5883 5883 5884 5885 5886 5886 5887 5887 5888 5888 5889 5889 5889 5889 5889 5889 5889 5888 5888 5888 5887 5887 5887 5887 5886 5886 5886 5885 5885 5884 5884 5884 5883 5883 5882 5882
5876 5876 5876 5877 5877 5878 5878 5879 5880 5880 5881 5882 5882 5883 5883 5884 5884 5884 5885 5885 5885 5885 5885 5885 5884 5884 5883 5883 5883 5882 5882 5882 5881 5881 5880 5880 5879 5879 5878 5878 5878 5877 5877
5872 5873 5873 5873 5873 5874 5874 5875 5876 5876 5877 5878 5878 5878 5879 5879 5879 5880 5880 5880 5881 5881 5881 5880 5879 5879 5878 5878 5878 5877 5877 5877 5876 5875 5875 5874 5874 5873 5873 5872 5872 5871 5871
5869 5869 5869 5869 5870 5870 5870 5871 5871 5872 5872 5873 5873 5873 5874 5874 5874 5874 5875 5875 5875 5875 5875 5875 5874 5873 5873 5872 5872 5871 5871 5871 5870 5869 5869 5868 5867 5867 5866 5866 5865 5865 5864
5865 5865 5865 5865 5866 5866 5866 5866 5867 5867 5867 5868 5868 5868 5868 5868 5869 5868 5868 5868 5868 5868 5869 5869 5868 5867 5867 5866 5866 5865 5864 5864 5863 5862 5861 5861 5860 5859 5859 5858 5857 5857 5856
5862 5861 5861 5861 5861 5861 5861 5861 5861 5861 5861 5862 5862 5862 5863 5862 5862 5862 5862 5862 5862 5862 5862 5862 5861 5861 5860 5859 5858 5858 5857 5856 5855 5854 5854 5853 5852 5851 5850 5849 5849 5848 5847
5858 5857 5857 5857 5856 5856 5856 5855 5855 5855 5855 5856 5856 5856 5856 5856 5856 5856 5856 5856 5856 5855 5855 5855 5854 5854 5853 5852 5851 5850 5849 5848 5847 5846 5845 5844 5843 5842 5841 5840 5840 5839 5838
5854 5853 5853 5852 5851 5851 5850 5850 5849 5849 5848 5848 5849 5849 5849 5850 5850 5850 5849 5849 5849 5848 5848 5847 5847 5846 5845 5844 5842 5841 5840 5839 5838 5837 5836 5835 5834 5833 5832 5831 5830 5829 5828
5849 5849 5848 5847 5846 5846 5845 5844 5843 5842 5841 5841 5842 5842 5843 5843 5843 5843 5843 5842 5842 5841 5841 5840 5839 5838 5837 5835 5834 5832 5831 5830 5829 5828 5827 5826 5824 5823 5822 5821 5820 5819 5818
5845 5844 5843 5842 5841 5840 5839 5838 5837 5836 5835 5835 5836 5836 5837 5837 5837 5836 5836 5835 5835 5834 5833 5832 5831 5830 5828 5827 5826 5824 5823 5822 5821 5820 5818 5817 5815 5813 5812 5810 5809 5808 5806
5840 5839 5838 5837 5836 5835 5834 5833 5833 5832 5831 5831 5830 5830 5830 5830 5830 5830 5829 5829 5828 5827 5826 5825 5823 5822 5820 5819 5817 5816 5814 5813 5811 5810 5808 5806 5805 5803 5801 5799 5798 5796 5795
5835 5834 5833 5832 5831 5830 5829 5829 5828 5827 5826 5826 5825 5825 5824 5824 5823 5823 5822 5821 5820 5819 5818 5817 5815 5814 5812 5810 5809 5807 5805 5803 5801 5800 5798 5796 5794 5792 5790 5789 5787 5785 5783
5831 5830 5828 5828 5827 5826 5825 5824 5823 5822 5822 5821 5820 5819 5818 5818 5817 5816 5815 5814 5812 5811 5809 5808 5807 5805 5803 5801 5799 5798 5796 5794 5791 5789 5787 5785 5783 5781 5779 5777 5774 5772 5770
5827 5825 5824 5823 5822 5821 5820 5819 5818 5818 5817 5816 5814 5813 5812 5811 5810 5808 5807 5806 5804 5803 5801 5800 5798 5796 5794 5792 5790 5788 5786 5783 5781 5779 5777 5775 5772 5770 5767 5765 5762 5759 5757
Wind_Speed
2 2 2 2 1 1 0 1 0 1 1 1 2 2 2 3 4 4 3 3 3 3 2 1 1 1 0 0 1 1 2 2 2 2 2 2 3 3 3 3 4 3 3
4 4 3 2 2 2 1 1 1 1 1 0 1 1 2 2 3 3 3 3 3 2 2 1 1 1 1 1 1 2 2 3 3 3 3 3 3 4 4 4 4 4 4
5 5 3 3 2 2 2 2 2 2 2 1 0 1 1 1 1 2 2 2 2 2 2 2 1 1 1 2 2 2 2 3 4 4 4 4 5 5 5 5 5 5 5
6 6 5 4 4 4 3 3 3 3 3 2 2 2 2 1 2 2 2 2 2 2 3 2 2 2 2 2 2 2 3 3 4 4 5 5 5 5 5 6 6 6 6
7 7 7 6 5 5 4 4 4 4 4 3 3 3 2 2 2 2 2 2 2 3 3 3 2 3 3 3 3 2 3 3 4 4 5 6 6 6 6 6 6 7 7
7 8 8 7 6 6 6 6 6 6 5 5 5 4 4 4 4 4 3 3 3 3 3 3 3 3 4 4 4 3 4 4 5 5 6 6 7 7 7 7 7 8 8
8 8 8 8 8 7 7 7 8 7 7 7 6 6 6 6 6 5 4 4 5 4 4 4 4 4 4 4 4 5 5 5 6 6 7 7 8 8 8 8 9 9 10
9 9 9 9 9 9 9 9 9 9 9 8 8 8 8 7 7 6 6 6 6 6 6 5 5 5 5 5 5 6 6 7 7 7 7 8 8 9 9 10 10 11 11
10 10 10 10 10 10 10 10 11 11 10 10 10 10 9 9 9 9 8 8 8 8 7 7 7 7 7 7 7 8 8 8 9 9 9 10 10 10 11 11 12 12 12
12 12 12 11 12 12 12 12 12 13 12 12 12 12 12 11 11 11 11 11 10 10 10 10 9 10 10 9 9 9 10 10 10 10 11 11 12 12 12 13 13 13 14
12 13 13 13 13 13 13 14 14 14 14 13 13 13 13 14 13 13 13 13 13 12 12 12 12 12 12 12 12 12 12 12 12 13 13 13 13 14 14 14 14 15 15
12 13 14 15 14 14 14 15 15 15 16 15 15 15 15 15 16 16 16 16 15 14 13 13 13 14 13 14 14 14 14 14 15 15 15 16 16 16 16 16 16 16 17
13 14 15 16 16 16 16 16 16 16 16 17 17 17 17 17 17 18 17 17 17 16 16 16 16 16 16 16 16 16 17 17 17 17 17 18 18 19 19 19 19 19 19
14 15 16 17 18 18 18 18 18 17 18 18 18 18 18 18 19 19 19 19 19 19 19 19 19 19 19 19 19 19 20 20 20 20 20 20 21 21 21 21 22 22 22
14 15 16 16 17 18 18 18 19 19 19 20 20 20 21 21 21 21 22 22 21 21 21 21 22 22 22 23 23 22 22 22 23 23 23 23 23 22 22 23 24 24 24
14 15 15 16 18 19 19 20 20 20 20 20 22 22 23 23 24 24 24 24 24 24 23 23 24 24 25 25 25 25 25 25 25 25 25 26 26 26 26 26 27 27 27
13 14 15 16 18 19 20 20 21 21 21 22 22 23 23 24 24 24 24 25 25 26 25 26 27 27 27 27 27 28 28 28 28 28 28 28 29 29 29 29 30 30 29
13 14 15 16 17 19 20 21 22 23 23 23 24 24 24 25 26 26 26 26 27 27 26 26 27 28 28 29 29 29 30 30 30 30 30 31 31 32 32 32 32 32 32
13 14 14 16 17 19 21 21 22 23 24 25 26 26 26 26 26 26 27 27 27 27 27 28 28 29 30 31 31 31 31 32 32 32 32 33 34 34 34 34 34 34 35
15 15 16 17 18 19 20 21 23 24 25 26 26 26 27 27 26 26 27 27 27 28 28 28 29 30 30 31 32 32 33 32 33 34 34 34 34 35 36 36 36 36 37
16 16 17 18 19 20 20 21 22 23 23 24 25 26 26 26 26 26 26 27 27 27 28 28 29 30 31 31 32 33 33 33 33 33 34 35 36 36 36 36 37 38 38
17 18 18 19 19 20 21 21 21 21 21 22 22 23 24 25 25 25 26 27 28 28 28 29 30 31 31 31 32 33 33 34 34 35 35 36 37 37 37 37 38 39 40
18 18 19 19 19 20 20 20 20 19 19 19 21 23 24 24 25 26 27 27 27 28 29 30 31 30 31 31 31 32 33 34 34 36 37 37 38 38 38 38 39 41 42
18 18 18 18 19 19 19 19 19 19 20 20 21 22 23 24 25 26 27 28 29 29 30 31 31 31 31 32 32 33 34 35 36 37 37 37 37 38 39 40 41 42 42
17 17 17 17 17 18 18 18 18 19 20 20 21 22 23 24 25 26 28 29 29 30 31 31 31 31 32 32 34 35 36 36 36 37 37 38 38 39 40 41 42 43 43
18 17 17 17 18 18 18 19 19 19 20 21 23 24 24 25 26 27 28 29 30 31 32 32 32 33 33 33 35 35 36 36 36 37 38 39 40 41 41 42 43 44 45
Wind_Direction
237 221 226 252 269 270 237 116 109 32 31 45 50 53 56 45 40 41 45 45 50 52 51 54 43 53 34 241 226 225 229 223 218 212 220 229 232 237 243 244 240 239 251
234 223 227 246 255 252 225 210 222 259 306 50 67 39 45 36 32 33 39 41 51 42 29 9 344 337 321 296 274 262 254 240 233 237 245 251 249 249 253 252 249 251 260
224 218 227 246 246 235 219 216 227 240 250 246 260 308 335 8 4 10 23 36 41 29 20 11 346 334 328 321 300 268 258 247 244 249 251 254 257 257 258 256 256 259 263
229 226 233 245 244 234 225 224 239 243 242 250 260 278 283 304 321 339 351 12 19 16 14 9 350 330 322 315 310 287 270 259 250 251 255 258 258 258 260 258 260 260 263
230 227 230 235 236 234 227 228 242 246 248 253 258 265 265 264 287 306 313 318 334 347 352 349 339 324 318 310 301 292 287 275 263 264 265 262 259 260 264 265 266 266 268
227 225 229 230 234 239 236 236 241 248 253 255 257 260 259 258 267 277 278 292 305 316 327 327 319 309 303 296 290 287 286 280 274 275 273 268 263 263 266 267 268 271 274
225 227 231 229 235 245 245 246 246 249 254 256 258 258 261 263 263 260 260 276 287 295 303 306 307 305 302 296 291 288 284 281 277 276 275 270 266 264 265 266 269 272 275
229 230 233 237 243 249 252 254 251 251 252 254 256 256 261 262 261 259 260 269 276 281 288 291 289 290 291 293 293 289 286 284 282 281 280 274 268 266 267 269 272 274 275
234 235 236 240 246 250 251 254 255 256 255 253 254 257 258 261 264 263 262 267 271 274 281 282 281 281 284 288 286 283 282 283 282 281 279 277 272 270 271 271 273 274 276
242 242 241 243 248 250 251 253 255 257 258 254 254 256 257 259 263 263 265 268 270 273 276 279 278 277 279 283 284 282 283 283 283 283 282 280 276 274 274 274 274 274 276
249 245 244 244 246 248 253 255 255 255 255 254 254 256 257 259 262 263 265 268 270 270 272 274 275 278 278 279 280 281 282 281 281 282 282 280 277 276 275 275 276 275 275
254 250 246 246 247 250 253 256 255 256 257 256 255 256 258 261 263 265 266 268 269 270 270 271 273 275 276 277 277 278 279 280 279 281 280 278 277 276 275 275 275 275 276
257 255 253 251 251 254 255 255 257 256 257 258 257 256 257 261 264 265 266 267 268 269 270 271 272 273 274 277 277 277 277 278 279 280 280 279 278 276 274 274 274 274 274
260 260 258 259 257 258 257 255 256 256 258 259 260 258 259 262 264 265 266 268 268 269 270 272 273 272 274 275 277 277 276 275 277 278 279 278 277 277 275 273 273 274 274
263 263 263 261 260 260 260 258 257 257 259 261 261 260 262 264 265 265 265 267 269 269 270 271 272 273 274 275 275 275 276 275 274 275 276 276 277 276 275 274 272 273 273
266 265 263 262 262 262 261 260 259 260 260 262 262 263 263 265 266 266 267 268 270 271 270 269 271 274 274 274 274 274 275 275 274 275 275 275 275 275 275 273 272 272 273
270 269 265 261 262 262 262 262 262 261 262 263 263 264 265 266 267 267 267 269 270 270 270 269 270 272 274 274 274 275 275 274 275 275 273 274 274 274 275 274 273 272 273
275 273 270 264 264 265 265 266 265 262 262 263 264 265 265 267 268 267 267 268 269 270 271 273 273 274 275 275 274 274 275 275 275 274 273 275 274 275 274 273 273 273 273
276 276 275 272 270 268 267 269 268 266 265 265 266 265 266 267 268 268 267 268 270 271 272 274 273 274 274 275 276 276 276 277 275 274 274 275 275 275 274 273 273 272 273
279 278 276 276 275 273 272 271 270 269 266 265 265 265 266 267 267 268 269 269 271 273 274 275 275 275 275 275 275 275 276 277 278 277 277 277 277 277 275 274 273 273 274
285 282 280 278 278 277 276 274 274 273 270 268 266 266 267 268 269 269 270 272 273 275 275 275 275 275 275 276 276 276 276 277 278 278 278 278 279 278 278 276 275 276 276
286 283 280 280 281 281 278 279 280 275 273 271 268 267 269 270 271 270 272 273 274 276 276 277 277 277 276 277 278 277 276 277 278 278 278 278 280 280 279 278 277 277 278
288 284 281 281 281 281 279 279 279 276 275 275 273 270 269 269 269 272 273 274 275 276 278 278 279 279 279 279 279 279 279 280 279 279 280 280 279 279 279 279 279 279 279
290 287 284 281 280 279 280 278 277 276 276 278 277 273 271 272 273 276 277 277 277 278 279 279 279 280 280 280 280 280 279 279 279 281 280 280 281 281 282 281 281 281 280
292 290 286 283 282 283 283 281 279 278 278 277 276 274 274 276 279 279 278 279 279 280 280 280 281 281 281 280 281 282 282 282 282 283 282 282 282 283 283 283 283 283 282
289 288 287 286 286 286 286 284 283 282 281 280 279 279 279 279 281 280 280 280 281 282 282 281 282 282 283 283 283 283 284 284 284 285 284 283 283 283 284 283 283 283 283